{"data":{"norad_id":68054,"epoch":"2026-09-19T10:35:41.003520Z","epoch_age_seconds":151124,"freshness":"FRESH","line1":"1 68054U 26041Q   26262.44144680  .00018974  00000+0  57108-3 0  9997","line2":"2 68054  53.1577 224.8898 0001028 109.6207 250.4907 15.34410154 31122","mean_motion":15.34410154,"eccentricity":0.0001028,"inclination_deg":53.1577,"raan_deg":224.8898,"arg_perigee_deg":109.6207,"mean_anomaly_deg":250.4907,"bstar":0.00057108,"rev_number":3112,"period_min":93.8471370413,"perigee_km":461.96982527145,"apogee_km":463.3762958199,"semimajor_km":6840.8100605457,"source":"CELESTRAK","updated_at":"2026-09-20T09:00:43.749848Z"}}